[[{"header":{"parameterUnit":"m.s-1","parameterCategory":1,"la1":30.2991,"la2":30.254,"lo1":-89.0895,"lo2":-89.0444,"dy":0.0017,"dx":0.0017,"nx":28,"ny":28,"refTime":"2023-10-24T03:00:00:Z","depth":0,"parameterNumber":2,"parameterNumberName":"U-component_of_WINDS"},"data":[0,0,0,0,0,0,0,0,0,0,0,0,0,0,0,0,0,0,0,0,0,0,0,0,0,0,0,0,0,0,0,0,0,0,0,0,0,0,0,0,0,0,0,0,0,0,0,0,0,0,0,0,0,0,0,0,0,0,-6.1577,-6.1578,0,-6.1658,-6.1659,-6.166,-6.1608,-6.1605,-6.1603,-6.1601,-6.1683,-6.1687,-6.1691,0,0,0,0,0,0,0,0,0,0,0,0,0,-6.1379,-6.1383,-6.1577,-6.1578,-6.1579,-6.1658,-6.1659,-6.166,-6.1608,-6.1605,-6.1602,-6.16,-6.1681,-6.1687,-6.1692,0,0,0,0,0,0,0,0,0,0,0,0,0,-6.1463,-6.1385,-6.1577,-6.1563,-6.1562,-6.1657,-6.1659,-6.166,-6.1609,-6.1605,-6.1602,-6.1598,-6.168,-6.1686,-6.1693,-6.1806,0,0,-6.1713,-6.1716,0,0,0,0,0,0,0,0,-6.1459,-6.1471,-6.1564,-6.1564,-6.1563,-6.1619,-6.1619,-6.1709,-6.161,-6.1591,-6.1601,-6.1596,-6.1664,-6.1672,-6.1695,-6.181,-6.1813,-6.1714,-6.1718,-6.172,-6.1722,0,0,0,0,0,0,0,-6.1453,-6.1467,-6.1609,-6.1565,-6.1565,-6.1553,-6.1561,-6.1636,-6.1647,-6.1592,-6.1589,-6.1599,-6.1664,-6.1689,-6.1697,-6.1815,-6.1713,-6.1719,-6.1723,-6.1726,-6.203,-6.2034,0,0,0,0,0,0,-6.1448,-6.1462,-6.1606,-6.1611,-6.1501,-6.156,-6.1568,-6.1605,-6.1646,-6.1649,-6.1602,-6.1597,-6.1679,-6.1689,-6.1699,-6.1835,-6.172,-6.1727,-6.173,-6.2026,-6.2031,-6.2035,0,0,0,0,0,0,-6.1444,-6.1461,-6.1603,-6.1536,-6.1553,-6.1567,-6.1608,-6.1608,-6.1633,-6.1654,-6.1655,-6.1626,-6.1677,-6.169,-6.1781,-6.1837,-6.173,-6.1736,-6.2021,-6.2027,-6.2033,-6.2108,0,0,0,0,0,0,-6.1439,-6.146,-6.1502,-6.1537,-6.1557,-6.1682,-6.1612,-6.1612,-6.1645,-6.1638,-6.1676,-6.1679,-6.1675,-6.1771,-6.1787,-6.1845,-6.1741,-6.2016,-6.2024,-6.2031,-6.21,-6.2116,-6.2129,0,0,0,0,0,-6.1432,-6.1519,-6.1505,-6.1522,-6.161,-6.1685,-6.1696,-6.169,-6.165,-6.1693,-6.1707,-6.1678,-6.183,-6.1781,-6.1799,-6.1859,-6.2012,-6.2021,-6.203,-6.2094,-6.2113,-6.2129,0,0,0,0,0,0,-6.1489,-6.1523,-6.1507,-6.1609,-6.1645,-6.1676,-6.1729,-6.171,-6.1758,-6.1749,-6.1741,-6.175,-6.1844,-6.1861,-6.1806,-6.1973,-6.1915,-6.1928,-6.1957,-6.1975,-6.1989,-6.1981,-6.1746,0,0,0,0,0,-6.1514,-6.1572,-6.1599,-6.1686,-6.1705,-6.1715,-6.1748,-6.1741,-6.1777,-6.1792,-6.1812,-6.1848,-6.1905,-6.1942,-6.1994,-6.2105,-6.2113,-6.2156,-6.217,-6.2182,-6.2192,-6.2253,-6.2273,-6.2065,-6.2065,-6.2065,0,0,-6.1564,-6.1591,-6.1627,-6.1699,-6.1725,-6.1786,-6.1728,-6.1794,-6.1839,-6.1802,-6.1888,-6.1905,-6.1946,-6.2047,-6.2093,-6.2064,-6.2252,-6.2194,-6.2203,-6.2207,-6.2265,-6.2285,-6.2302,-6.2072,-6.207,-6.2069,0,0,-6.1687,-6.1714,-6.1789,-6.1819,-6.1861,-6.1868,-6.1887,-6.1923,-6.1933,-6.2021,-6.1994,-6.205,-6.2146,-6.2177,-6.2205,-6.2347,-6.2322,-6.2365,-6.2439,-6.2499,-6.2515,-6.2529,-6.2579,-6.2598,-6.2376,-6.2377,-6.2377,0,-6.1744,-6.1835,-6.1831,-6.19,-6.1933,-6.1905,-6.1982,-6.2011,-6.2069,-6.2092,-6.206,-6.2184,-6.2209,-6.2318,-6.2353,-6.2378,-6.2399,-6.2358,-6.2513,-6.2528,-6.2541,-6.2588,-6.2607,-6.2381,-6.2381,-6.238,-6.238,0,-6.1903,-6.1967,-6.2024,-6.2081,-6.2121,-6.2194,-6.2202,-6.2244,-6.2236,-6.2247,-6.2338,-6.2369,-6.2428,-6.2455,-6.2446,-6.2564,-6.2545,-6.2514,-6.2454,-6.2565,-6.261,-6.2628,-6.2388,-6.2386,-6.2385,-6.2384,0,0,-6.2057,-6.2117,-6.2137,-6.2164,-6.2212,-6.2261,-6.2336,-6.2395,-6.2431,-6.2474,-6.2535,-6.2621,-6.2594,-6.2626,-6.2623,-6.2676,-6.2787,-6.2638,-6.2639,-6.2663,-6.2919,-6.294,-6.2961,-6.2773,-6.2777,-6.278,-6.2915,0,-6.2182,-6.2309,-6.2311,-6.2429,-6.2489,-6.2467,-6.2531,-6.2569,-6.2583,-6.2637,-6.2653,-6.2713,-6.2673,-6.2692,-6.2745,-6.2762,-6.2838,-6.2753,-6.283,-6.2833,-6.2816,-6.2984,-6.3005,-6.3131,-6.2932,-6.2935,-6.2938,0,-6.2342,-6.2392,-6.2516,-6.2559,-6.2584,-6.2641,-6.2698,-6.275,-6.2794,-6.2801,-6.284,-6.283,-6.2907,-6.285,-6.2956,-6.2899,-6.2932,-6.2946,-6.2951,-6.2955,-6.2889,-6.299,-6.3171,-6.3189,-6.2965,-6.2963,-6.2961,0,-6.244,-6.2539,-6.2626,-6.2651,-6.2703,-6.2744,-6.2768,-6.2808,-6.2846,-6.2896,-6.292,-6.298,-6.3011,-6.3058,-6.3065,-6.3023,-6.3173,-6.3115,-6.318,-6.318,-6.3208,-6.3205,-6.3394,-6.3235,-6.3235,-6.3235,-6.3234,0,-6.2576,-6.2653,-6.2671,-6.2724,-6.2811,-6.2815,-6.29,-6.2921,-6.2958,-6.3016,-6.3002,-6.3057,-6.3065,-6.3122,-6.3129,-6.3217,-6.3232,-6.324,-6.324,-6.3239,-6.3237,-6.3257,-6.3247,-6.324,-6.3239,-6.3238,-6.3237,0,-6.2697,-6.2713,-6.2807,-6.2851,-6.2864,-6.2926,-6.2964,-6.3016,-6.3032,-6.3106,-6.3123,-6.3147,-6.3215,-6.3228,-6.3308,-6.3313,-6.3417,-6.341,-6.3402,-6.34,-6.3463,-6.3456,-6.3667,-6.3695,-6.3521,-6.3523,-6.3524,0,-6.2781,-6.284,-6.2892,-6.293,-6.2957,-6.3019,-6.3057,-6.3066,-6.3107,-6.3164,-6.321,-6.3277,-6.3329,-6.3439,-6.3464,-6.3526,-6.3519,-6.3589,-6.3527,-6.3526,-6.3518,-6.3513,-6.3519,-6.3599,-6.3601,-6.3603,-6.3604,0,-6.2928,-6.2934,-6.299,-6.3052,-6.3099,-6.3147,-6.3192,-6.3225,-6.324,-6.3287,-6.3357,-6.3399,-6.3483,-6.3549,-6.3612,-6.3638,-6.3624,-6.3625,-6.3642,-6.3639,-6.3632,-6.3635,-6.3431,-6.3618,-6.3616,-6.3615,-6.3615,-6.3614,-6.3031,-6.3083,-6.3129,-6.3193,-6.323,-6.3274,-6.3326,-6.335,-6.3408,-6.3476,-6.3479,-6.3556,-6.3603,-6.3686,-6.3717,-6.3778,-6.3755,-6.3781,-6.3787,-6.3793,-6.3798,-6.3626,-6.3789,-6.3789,-6.3789,-6.3788,-6.3788,0,-6.3175,-6.3205,-6.3265,-6.3331,-6.3382,-6.3368,-6.342,-6.3463,-6.3531,-6.3576,-6.363,-6.3713,-6.3779,-6.3812,-6.3878,-6.392,-6.3916,-6.3937,-6.3932,-6.3939,-6.3815,-6.3792,-6.394,-6.394,-6.394,-6.394,-6.394,-6.394,-6.3256,-6.3343,-6.3357,-6.3463,-6.3493,-6.3568,-6.3599,-6.3641,-6.3677,-6.3769,-6.3825,-6.3847,-6.3888,-6.3958,-6.4019,-6.4027,-6.4051,-6.4075,-6.408,-6.3963,-6.3947,-6.3932,-6.391,-6.4081,-6.4081,-6.4199,-6.42,-6.4201]},{"header":{"parameterUnit":"m.s-1","parameterCategory":1,"la1":30.2991,"la2":30.254,"lo1":-89.0895,"lo2":-89.0444,"dy":0.0017,"dx":0.0017,"nx":28,"ny":28,"refTime":"2023-10-24T03:00:00:Z","depth":0,"parameterNumber":3,"parameterNumberName":"V-component_of_WINDS"},"data":[0,0,0,0,0,0,0,0,0,0,0,0,0,0,0,0,0,0,0,0,0,0,0,0,0,0,0,0,0,0,0,0,0,0,0,0,0,0,0,0,0,0,0,0,0,0,0,0,0,0,0,0,0,0,0,0,0,0,1.7244,1.7245,0,1.7358,1.7359,1.7361,1.7473,1.7475,1.7476,1.7477,1.759,1.7591,1.7593,0,0,0,0,0,0,0,0,0,0,0,0,0,1.7119,1.712,1.7243,1.7245,1.7246,1.7358,1.7359,1.7361,1.7473,1.7475,1.7476,1.7478,1.7589,1.7591,1.7593,0,0,0,0,0,0,0,0,0,0,0,0,0,1.7197,1.7121,1.7243,1.7316,1.7323,1.7358,1.736,1.7361,1.7472,1.7475,1.7477,1.7479,1.7588,1.7591,1.7593,1.7563,0,0,1.76,1.7602,0,0,0,0,0,0,0,0,1.7192,1.7201,1.7304,1.7311,1.7319,1.7404,1.7357,1.7429,1.7472,1.7416,1.7478,1.748,1.7526,1.7533,1.755,1.7569,1.7573,1.7601,1.7602,1.7603,1.7604,0,0,0,0,0,0,0,1.7187,1.7197,1.7289,1.7305,1.7315,1.7342,1.7355,1.7371,1.7456,1.7421,1.7429,1.7442,1.753,1.7547,1.7553,1.7575,1.7601,1.7603,1.7604,1.7605,1.7578,1.7576,0,0,0,0,0,0,1.7171,1.7192,1.7285,1.7292,1.726,1.7342,1.7357,1.7374,1.7457,1.7472,1.7439,1.7446,1.7542,1.755,1.7558,1.753,1.7603,1.7605,1.7607,1.758,1.7578,1.7575,0,0,0,0,0,0,1.7168,1.7178,1.728,1.7244,1.726,1.7342,1.736,1.7375,1.7393,1.7471,1.7486,1.7441,1.7544,1.7554,1.7562,1.7535,1.7607,1.7609,1.7583,1.7579,1.7576,1.7473,0,0,0,0,0,0,1.7164,1.7176,1.7166,1.7243,1.7261,1.7283,1.7358,1.7376,1.7397,1.7407,1.7477,1.749,1.7547,1.7558,1.7564,1.754,1.7611,1.7585,1.7581,1.7577,1.7479,1.7466,1.7456,0,0,0,0,0,1.7159,1.7131,1.7165,1.7176,1.725,1.7282,1.7292,1.7358,1.7394,1.7385,1.7436,1.7488,1.7537,1.7558,1.7566,1.7542,1.7587,1.7582,1.7578,1.7484,1.7469,1.7456,0,0,0,0,0,0,1.7046,1.7142,1.7181,1.7178,1.7221,1.7301,1.729,1.734,1.7372,1.738,1.746,1.7475,1.7474,1.7509,1.753,1.7519,1.757,1.7566,1.7496,1.7482,1.747,1.7462,1.7613,0,0,0,0,0,1.7021,1.7039,1.7122,1.7111,1.7131,1.7207,1.7223,1.7271,1.7318,1.7337,1.7388,1.7431,1.7456,1.7471,1.7499,1.7485,1.7502,1.7472,1.7461,1.7451,1.7447,1.7444,1.7432,1.7559,1.7559,1.7559,0,0,1.6968,1.7024,1.703,1.709,1.7129,1.7146,1.7221,1.7235,1.7248,1.7338,1.735,1.7389,1.7442,1.7439,1.7441,1.7468,1.7416,1.7445,1.7436,1.7437,1.7437,1.7425,1.7414,1.7556,1.7557,1.7557,0,0,1.6882,1.6926,1.6922,1.6961,1.702,1.7072,1.707,1.7144,1.7174,1.7187,1.7256,1.7272,1.7314,1.735,1.7373,1.7304,1.7353,1.731,1.7249,1.7245,1.7235,1.7226,1.7202,1.7193,1.7306,1.7306,1.7305,0,1.6809,1.6839,1.6914,1.6925,1.6949,1.7034,1.7031,1.7064,1.7128,1.7143,1.7174,1.723,1.7272,1.728,1.7263,1.7279,1.728,1.7302,1.7231,1.7223,1.7216,1.7194,1.7185,1.73,1.7301,1.7301,1.7302,0,1.6747,1.6767,1.6756,1.682,1.6843,1.6846,1.6921,1.6936,1.6983,1.703,1.7043,1.7097,1.7138,1.7143,1.7187,1.7158,1.7173,1.7216,1.7269,1.7197,1.7178,1.717,1.7292,1.7294,1.7296,1.7297,0,0,1.6591,1.6698,1.6693,1.6723,1.6796,1.6812,1.682,1.6863,1.6874,1.6916,1.6925,1.696,1.7001,1.7027,1.7077,1.7073,1.7017,1.7117,1.712,1.7097,1.6988,1.6956,1.6945,1.7051,1.7049,1.7048,1.6984,0,1.6518,1.6539,1.6607,1.6607,1.6627,1.6709,1.6716,1.6761,1.6806,1.6829,1.6878,1.6902,1.6954,1.6971,1.6972,1.7023,1.6996,1.7029,1.7059,1.7059,1.7043,1.6935,1.69,1.6837,1.6977,1.6976,1.6975,0,1.6435,1.6474,1.6476,1.6551,1.6562,1.6567,1.6613,1.6633,1.6686,1.672,1.6751,1.6807,1.682,1.687,1.6889,1.691,1.6927,1.6954,1.6953,1.6958,1.7012,1.6937,1.6818,1.6808,1.6963,1.6964,1.6965,0,1.6322,1.6375,1.6385,1.6408,1.6495,1.6497,1.6533,1.6589,1.6611,1.665,1.6665,1.6704,1.6725,1.6754,1.682,1.685,1.6832,1.6887,1.6859,1.6858,1.6851,1.6851,1.6733,1.6861,1.6861,1.6862,1.6862,0,1.6233,1.6231,1.6335,1.6341,1.6342,1.6421,1.6419,1.6463,1.6512,1.6527,1.66,1.6612,1.6698,1.672,1.6771,1.678,1.6788,1.6816,1.6829,1.6809,1.6806,1.6821,1.6827,1.6859,1.686,1.686,1.6861,0,1.6106,1.6176,1.6192,1.6274,1.6295,1.6292,1.6362,1.637,1.6421,1.6439,1.6448,1.6527,1.6557,1.6626,1.6673,1.6708,1.6703,1.6728,1.6686,1.6694,1.6664,1.6666,1.6552,1.6541,1.6675,1.6673,1.6672,0,1.6045,1.6046,1.613,1.6146,1.618,1.6205,1.6228,1.6306,1.6327,1.639,1.639,1.6427,1.646,1.6504,1.6565,1.6603,1.6629,1.6587,1.6635,1.6615,1.6629,1.6628,1.6629,1.6575,1.6574,1.6572,1.6571,0,1.5929,1.5965,1.5996,1.6041,1.6067,1.6105,1.6147,1.6156,1.6244,1.6264,1.6297,1.6323,1.6374,1.6409,1.6456,1.6492,1.6546,1.6556,1.6551,1.6531,1.6507,1.652,1.6657,1.6557,1.6559,1.656,1.656,1.6561,1.5835,1.584,1.59,1.5934,1.5974,1.6012,1.6025,1.6078,1.6108,1.6156,1.62,1.6229,1.6284,1.6353,1.6386,1.641,1.6437,1.643,1.6429,1.6426,1.6418,1.6503,1.6419,1.6419,1.642,1.642,1.642,0,1.5723,1.5767,1.5797,1.5855,1.5881,1.5932,1.5981,1.6,1.6025,1.6072,1.6105,1.6143,1.6178,1.6243,1.6284,1.629,1.6316,1.6298,1.6298,1.6306,1.6391,1.6391,1.6277,1.6277,1.6277,1.6277,1.6277,1.6277,1.5669,1.5681,1.5724,1.5758,1.5801,1.5832,1.5856,1.5891,1.593,1.597,1.6001,1.6044,1.6098,1.6144,1.6179,1.6197,1.6208,1.6183,1.6209,1.6286,1.63,1.6313,1.6313,1.6185,1.6185,1.6122,1.6122,1.6121]}]]